Location: Dead Woman Crossing
(43.5369°N, 106.3228°W)
Time: 07:57:57
(UTC+00:00)

SO-50 - Visible Passes

Search period start: 01 July 2022 00:00
Search period end: 11 July 2022 00:00
Orbit: 586 x 697 km, 64.6° (Epoch: 30 June)

Date Brightness Start Highest point End Pass type
(mag) Time Alt. Az. Time Alt. Az. Time Alt. Az.
01 Jul ? 06:52:15 38° ESE 06:52:15 38° ESE 06:56:16 10° NE visible
01 Jul ? 08:29:49 20° W 08:32:17 31° NW 08:36:38 10° NNE visible
02 Jul ? 07:15:40 73° SSW 07:16:08 89° SE 07:21:00 10° NE visible
02 Jul ? 08:54:00 10° W 08:57:15 18° NW 09:00:35 10° N visible
03 Jul ? 06:01:27 25° E 06:01:27 25° E 06:04:31 10° ENE visible
03 Jul ? 07:39:00 30° W 07:40:44 43° NW 07:45:23 10° NNE visible
03 Jul ? 09:21:06 10° NW 09:22:28 11° NNW 09:23:50 10° N visible
04 Jul ? 06:24:43 61° ESE 06:24:45 61° ESE 06:29:32 10° NE visible
04 Jul ? 08:02:16 12° W 08:05:35 23° NW 08:09:28 10° NNE visible
05 Jul ? 05:10:21 17° E 05:10:21 17° E 05:12:29 10° ENE visible
05 Jul ? 06:47:53 43° WSW 06:49:14 61° NW 06:54:03 10° NNE visible
05 Jul ? 08:28:11 10° WNW 08:30:41 14° NNW 08:33:11 10° N visible
06 Jul ? 05:33:23 40° ESE 05:33:26 40° ESE 05:37:57 10° NE visible
06 Jul ? 07:10:55 16° W 07:13:57 31° NW 07:18:17 10° NNE visible
07 Jul ? 04:18:45 11° E 04:18:45 11° E 04:19:44 10° E visible
07 Jul ? 05:56:17 44° SW 05:57:47 88° NW 06:02:39 10° NE visible
07 Jul ? 07:35:43 10° WNW 07:38:56 18° NW 07:42:13 10° N visible
08 Jul ? 04:41:26 26° SE 04:42:09 27° ESE 04:46:12 10° NE visible
08 Jul ? 06:18:56 16° WSW 06:22:23 42° NW 06:27:01 10° NNE visible
08 Jul ? 08:02:55 10° NW 08:04:09 11° NNW 08:05:24 10° N visible
09 Jul ? 05:03:46 25° SSW 05:06:24 63° ESE 05:11:12 10° NE visible
09 Jul ? 06:43:29 10° W 06:47:15 23° NW 06:51:07 10° NNE visible
10 Jul ? 03:48:04 11° SSE 03:50:56 18° ESE 03:54:12 10° ENE visible
10 Jul ? 05:26:14 10° SW 05:30:53 59° NW 05:35:42 10° NNE visible
10 Jul ? 07:09:56 10° WNW 07:12:21 14° NNW 07:14:48 10° N visible
